[[{"header":{"parameterUnit":"m.s-1","parameterCategory":1,"la1":30.2991,"la2":30.254,"lo1":-89.0895,"lo2":-89.0444,"dy":0.0017,"dx":0.0017,"nx":28,"ny":28,"refTime":"2025-09-01T21:00:00:Z","depth":0,"parameterNumber":2,"parameterNumberName":"U-component_of_WINDS"},"data":[0,0,0,0,0,0,0,0,0,0,0,0,0,0,0,0,0,0,0,0,0,0,0,0,0,0,0,0,0,0,0,0,0,0,0,0,0,0,0,0,0,0,0,0,0,0,0,0,0,0,0,0,0,0,0,0,0,0,-3.9314,-3.9314,0,-3.9266,-3.9266,-3.9265,-3.9114,-3.911,-3.9107,-3.9104,-3.9058,-3.906,-3.9062,0,0,0,0,0,0,0,0,0,0,0,0,0,-3.928,-3.9282,-3.9314,-3.9314,-3.9313,-3.9267,-3.9266,-3.9265,-3.9114,-3.911,-3.9106,-3.9102,-3.9057,-3.906,-3.9062,0,0,0,0,0,0,0,0,0,0,0,0,0,-3.927,-3.9282,-3.9315,-3.9232,-3.9224,-3.9267,-3.9266,-3.9265,-3.9115,-3.911,-3.9105,-3.91,-3.9057,-3.9059,-3.9062,-3.9181,0,0,-3.9071,-3.9072,0,0,0,0,0,0,0,0,-3.9271,-3.9272,-3.9245,-3.9238,-3.9229,-3.9191,-3.9237,-3.9237,-3.9116,-3.9157,-3.9104,-3.9098,-3.9107,-3.9105,-3.9107,-3.9179,-3.9177,-3.9071,-3.9073,-3.9074,-3.9075,0,0,0,0,0,0,0,-3.9272,-3.9273,-3.9295,-3.9245,-3.9235,-3.9199,-3.9192,-3.9236,-3.9161,-3.9153,-3.9142,-3.9138,-3.9101,-3.9105,-3.9105,-3.9177,-3.9071,-3.9074,-3.9076,-3.9077,-3.9347,-3.9352,0,0,0,0,0,0,-3.9284,-3.9274,-3.9297,-3.9294,-3.9238,-3.9204,-3.9196,-3.9208,-3.916,-3.9147,-3.9142,-3.9131,-3.9102,-3.9102,-3.9103,-3.924,-3.9074,-3.9077,-3.9079,-3.9341,-3.9348,-3.9354,0,0,0,0,0,0,-3.9284,-3.9287,-3.9299,-3.9281,-3.928,-3.921,-3.9225,-3.921,-3.9213,-3.9152,-3.9138,-3.9159,-3.9098,-3.9099,-3.9163,-3.9236,-3.9078,-3.9081,-3.9335,-3.9343,-3.9351,-3.9515,0,0,0,0,0,0,-3.9283,-3.9288,-3.9331,-3.9283,-3.9281,-3.9359,-3.9229,-3.9213,-3.9218,-3.9203,-3.9164,-3.9153,-3.9094,-3.916,-3.9166,-3.9237,-3.9083,-3.9328,-3.9339,-3.9348,-3.9503,-3.9528,-3.9549,0,0,0,0,0,-3.9283,-3.9379,-3.9334,-3.9337,-3.9334,-3.9363,-3.9362,-3.9292,-3.9225,-3.9268,-3.923,-3.9154,-3.9228,-3.9168,-3.9174,-3.9247,-3.9323,-3.9336,-3.9347,-3.9492,-3.9523,-3.9548,0,0,0,0,0,0,-3.9437,-3.9371,-3.932,-3.9404,-3.9391,-3.9338,-3.939,-3.9327,-3.9332,-3.9318,-3.9232,-3.9225,-3.9302,-3.9281,-3.9215,-3.9361,-3.9263,-3.9277,-3.9371,-3.94,-3.9422,-3.9425,-3.9086,0,0,0,0,0,-3.9481,-3.951,-3.9451,-3.9531,-3.9527,-3.9461,-3.9471,-3.9418,-3.9401,-3.9395,-3.936,-3.9347,-3.9368,-3.9383,-3.9398,-3.95,-3.949,-3.9553,-3.9577,-3.9596,-3.9609,-3.9663,-3.9691,-3.9394,-3.9394,-3.9394,0,0,-3.9572,-3.954,-3.9563,-3.9561,-3.9544,-3.9578,-3.9456,-3.9496,-3.952,-3.9401,-3.9459,-3.9435,-3.9415,-3.9499,-3.9534,-3.9484,-3.9689,-3.9611,-3.9627,-3.9629,-3.9678,-3.9706,-3.9731,-3.9402,-3.9401,-3.9399,0,0,-3.9754,-3.9732,-3.9797,-3.9783,-3.976,-3.9715,-3.9732,-3.9689,-3.9668,-3.9725,-3.9637,-3.9666,-3.9702,-3.9692,-3.9692,-3.9876,-3.9807,-3.9883,-4.0004,-4.0058,-4.0081,-4.0102,-4.0168,-4.0192,-3.9897,-3.9897,-3.9897,0,-3.987,-3.9915,-3.9838,-3.9884,-3.9887,-3.9782,-3.9848,-3.9838,-3.9822,-3.9827,-3.9771,-3.9816,-3.9795,-3.9876,-3.9922,-3.9925,-3.9942,-3.9886,-4.0084,-4.0104,-4.0121,-4.0183,-4.0208,-3.9906,-3.9905,-3.9904,-3.9903,0,-4.0059,-4.0092,-4.0148,-4.0134,-4.0143,-4.0199,-4.0133,-4.0153,-4.0101,-4.0064,-4.0125,-4.0097,-4.0106,-4.0122,-4.0071,-4.0197,-4.0167,-4.0099,-3.9999,-4.016,-4.0217,-4.024,-3.992,-3.9916,-3.9914,-3.9911,0,0,-4.0333,-4.028,-4.0301,-4.0295,-4.0263,-4.0288,-4.0341,-4.0349,-4.0367,-4.0361,-4.0404,-4.0439,-4.0377,-4.0377,-4.0325,-4.0373,-4.0521,-4.0299,-4.0297,-4.0341,-4.0659,-4.071,-4.0739,-4.0476,-4.0481,-4.0484,-4.0661,0,-4.0506,-4.0591,-4.0526,-4.0623,-4.0654,-4.0556,-4.0603,-4.059,-4.0558,-4.058,-4.0545,-4.0571,-4.0487,-4.0487,-4.053,-4.0494,-4.0584,-4.048,-4.0516,-4.0519,-4.0523,-4.0768,-4.0821,-4.0989,-4.0683,-4.0687,-4.0689,0,-4.0717,-4.072,-4.0821,-4.0785,-4.0796,-4.0838,-4.0842,-4.0865,-4.0849,-4.0822,-4.0825,-4.0762,-4.0813,-4.0717,-4.0787,-4.0718,-4.073,-4.0716,-4.072,-4.072,-4.0613,-4.0774,-4.1041,-4.1066,-4.0723,-4.0721,-4.0718,0,-4.0908,-4.0937,-4.1002,-4.0999,-4.0959,-4.0992,-4.0977,-4.0956,-4.0966,-4.0971,-4.0977,-4.0988,-4.0993,-4.1004,-4.0946,-4.0881,-4.1025,-4.0923,-4.1005,-4.1007,-4.1038,-4.1037,-4.1311,-4.1048,-4.1048,-4.1047,-4.1047,0,-4.1106,-4.1171,-4.1087,-4.1126,-4.1198,-4.1125,-4.1198,-4.1173,-4.1157,-4.1191,-4.1108,-4.1143,-4.1065,-4.1092,-4.1048,-4.1114,-4.1117,-4.1098,-4.1085,-4.1105,-4.1107,-4.111,-4.1096,-4.1054,-4.1052,-4.1051,-4.105,0,-4.1329,-4.1275,-4.1339,-4.1297,-4.1288,-4.1343,-4.1307,-4.1344,-4.1307,-4.1352,-4.1359,-4.1302,-4.133,-4.1275,-4.1295,-4.1265,-4.1359,-4.1328,-4.1364,-4.1354,-4.1439,-4.1432,-4.1723,-4.1758,-4.1475,-4.1478,-4.148,0,-4.1458,-4.1507,-4.1471,-4.1488,-4.1477,-4.1506,-4.1516,-4.1447,-4.1462,-4.145,-4.1488,-4.151,-4.1522,-4.1573,-4.1534,-4.155,-4.1519,-4.162,-4.1521,-4.154,-4.152,-4.1518,-4.1523,-4.164,-4.1644,-4.1647,-4.1649,0,-4.1694,-4.1666,-4.1683,-4.1693,-4.1707,-4.1712,-4.171,-4.1729,-4.1657,-4.1678,-4.1705,-4.1716,-4.1738,-4.1761,-4.1769,-4.1755,-4.1691,-4.1681,-4.1701,-4.172,-4.1739,-4.173,-4.1419,-4.1674,-4.1671,-4.167,-4.1668,-4.1667,-4.1873,-4.1913,-4.1894,-4.1917,-4.1909,-4.1911,-4.1943,-4.1912,-4.1934,-4.1945,-4.1905,-4.1943,-4.1929,-4.1933,-4.1927,-4.1956,-4.1911,-4.194,-4.1947,-4.1955,-4.1969,-4.1736,-4.1958,-4.1957,-4.1956,-4.1955,-4.1955,0,-4.2104,-4.2088,-4.2111,-4.2112,-4.2131,-4.207,-4.2066,-4.2087,-4.2121,-4.2113,-4.2129,-4.2162,-4.2185,-4.215,-4.2167,-4.2198,-4.217,-4.2205,-4.2201,-4.22,-4.2008,-4.1989,-4.2228,-4.2228,-4.2228,-4.2228,-4.2228,-4.2228,-4.2226,-4.229,-4.2261,-4.2321,-4.2304,-4.234,-4.2344,-4.2346,-4.2339,-4.2381,-4.2399,-4.2376,-4.2359,-4.2375,-4.2394,-4.2383,-4.2393,-4.2439,-4.2419,-4.224,-4.2213,-4.2187,-4.2169,-4.2442,-4.2443,-4.2608,-4.2609,-4.261]},{"header":{"parameterUnit":"m.s-1","parameterCategory":1,"la1":30.2991,"la2":30.254,"lo1":-89.0895,"lo2":-89.0444,"dy":0.0017,"dx":0.0017,"nx":28,"ny":28,"refTime":"2025-09-01T21:00:00:Z","depth":0,"parameterNumber":3,"parameterNumberName":"V-component_of_WINDS"},"data":[0,0,0,0,0,0,0,0,0,0,0,0,0,0,0,0,0,0,0,0,0,0,0,0,0,0,0,0,0,0,0,0,0,0,0,0,0,0,0,0,0,0,0,0,0,0,0,0,0,0,0,0,0,0,0,0,0,0,2.3956,2.3956,0,2.3915,2.3914,2.3914,2.3937,2.3938,2.3939,2.394,2.3888,2.3885,2.3883,0,0,0,0,0,0,0,0,0,0,0,0,0,2.4049,2.4047,2.3956,2.3956,2.3955,2.3915,2.3914,2.3913,2.3936,2.3938,2.3939,2.3941,2.3889,2.3886,2.3883,0,0,0,0,0,0,0,0,0,0,0,0,0,2.4008,2.4046,2.3956,2.3962,2.3962,2.3915,2.3914,2.3913,2.3936,2.3938,2.394,2.3941,2.389,2.3886,2.3882,2.3824,0,0,2.3871,2.3869,0,0,0,0,0,0,0,0,2.401,2.4004,2.3962,2.3962,2.3962,2.3933,2.3928,2.3883,2.3936,2.3946,2.394,2.3942,2.3901,2.3896,2.3884,2.3822,2.3819,2.3871,2.3868,2.3867,2.3866,0,0,0,0,0,0,0,2.4013,2.4006,2.394,2.3961,2.3961,2.3964,2.396,2.3919,2.3913,2.3945,2.3947,2.3942,2.3901,2.3888,2.3883,2.3819,2.3871,2.3867,2.3865,2.3864,2.3706,2.3704,0,0,0,0,0,0,2.4016,2.4008,2.3941,2.3938,2.3991,2.3961,2.3957,2.394,2.3914,2.3912,2.394,2.3943,2.3893,2.3887,2.3881,2.3811,2.3867,2.3863,2.3861,2.3708,2.3705,2.3703,0,0,0,0,0,0,2.4018,2.401,2.3943,2.3974,2.3966,2.3958,2.3939,2.3938,2.3925,2.3911,2.3909,2.3928,2.3894,2.3887,2.3839,2.3809,2.3862,2.3858,2.371,2.3707,2.3704,2.367,0,0,0,0,0,0,2.4021,2.4011,2.399,2.3973,2.3964,2.3903,2.3937,2.3936,2.392,2.3923,2.3899,2.3897,2.3895,2.3844,2.3835,2.3805,2.3855,2.3713,2.3709,2.3705,2.3673,2.3666,2.366,0,0,0,0,0,2.4024,2.398,2.3989,2.3981,2.3938,2.3901,2.3895,2.3897,2.3918,2.3895,2.3886,2.3897,2.3815,2.3839,2.3829,2.3797,2.3714,2.371,2.3706,2.3676,2.3667,2.366,0,0,0,0,0,0,2.3989,2.3978,2.3987,2.3937,2.392,2.3905,2.3877,2.3888,2.3862,2.3866,2.3867,2.3861,2.3811,2.38,2.3827,2.374,2.3767,2.3761,2.3749,2.374,2.3733,2.3735,2.3852,0,0,0,0,0,2.3977,2.395,2.394,2.3897,2.3888,2.3884,2.3868,2.3872,2.3853,2.3845,2.3832,2.3811,2.3781,2.376,2.3731,2.3673,2.3667,2.3646,2.364,2.3634,2.3627,2.3595,2.3585,2.3689,2.3689,2.3689,0,0,2.3948,2.3939,2.3921,2.3889,2.3877,2.3847,2.3878,2.3845,2.3822,2.3839,2.3793,2.3784,2.376,2.3707,2.3683,2.3696,2.3598,2.3628,2.3624,2.362,2.3589,2.3579,2.3571,2.3686,2.3686,2.3687,0,0,2.3881,2.3873,2.3835,2.3823,2.3805,2.3803,2.3794,2.3778,2.3773,2.3729,2.3741,2.3713,2.366,2.3643,2.3628,2.3557,2.3566,2.3548,2.351,2.3479,2.3471,2.3463,2.3436,2.3427,2.3542,2.3542,2.3542,0,2.3847,2.3805,2.3814,2.378,2.3765,2.3784,2.3745,2.3732,2.3703,2.3692,2.3708,2.3644,2.3629,2.3572,2.3555,2.3543,2.353,2.3549,2.3472,2.3465,2.3458,2.3432,2.3422,2.3539,2.354,2.354,2.354,0,2.3764,2.3735,2.3706,2.3683,2.3665,2.3629,2.3629,2.361,2.3616,2.3612,2.3565,2.355,2.3518,2.3505,2.3509,2.3448,2.3457,2.3473,2.35,2.3446,2.3421,2.3412,2.3536,2.3537,2.3538,2.3538,0,0,2.367,2.3655,2.3644,2.3633,2.3616,2.3592,2.3557,2.3529,2.3512,2.3493,2.3461,2.3418,2.3433,2.3415,2.3418,2.3391,2.3334,2.3409,2.3409,2.3394,2.3265,2.3251,2.324,2.3342,2.334,2.3338,2.3266,0,2.3601,2.3542,2.3549,2.3491,2.3463,2.3482,2.3451,2.3436,2.3431,2.3405,2.34,2.3369,2.3392,2.3381,2.3356,2.3347,2.3308,2.3352,2.3309,2.3307,2.3312,2.3228,2.3213,2.3145,2.3257,2.3255,2.3254,0,2.3511,2.3493,2.3433,2.3421,2.341,2.3382,2.3357,2.3333,2.3316,2.3315,2.3297,2.3305,2.3267,2.3298,2.3244,2.3274,2.3257,2.325,2.3248,2.3241,2.3275,2.3216,2.3124,2.3113,2.324,2.3241,2.3242,0,2.3447,2.3407,2.3366,2.3357,2.3342,2.3322,2.3314,2.33,2.3283,2.3261,2.325,2.3223,2.3207,2.3185,2.3184,2.3208,2.313,2.3161,2.3125,2.3125,2.3105,2.3105,2.3006,2.3098,2.3099,2.3099,2.3099,0,2.3367,2.3329,2.3337,2.3311,2.3269,2.3278,2.3235,2.323,2.3217,2.3189,2.3203,2.3176,2.3178,2.315,2.315,2.3104,2.3097,2.3093,2.3093,2.3091,2.3091,2.3077,2.3081,2.3096,2.3097,2.3097,2.3098,0,2.3286,2.3291,2.3247,2.3239,2.3235,2.3204,2.3196,2.3171,2.317,2.3134,2.3126,2.3122,2.309,2.3089,2.3051,2.3051,2.2995,2.3001,2.3001,2.3002,2.2965,2.2968,2.2851,2.2835,2.294,2.2939,2.2939,0,2.3234,2.3205,2.3195,2.3179,2.3171,2.3145,2.3129,2.3137,2.3119,2.3099,2.3076,2.3046,2.3022,2.297,2.2962,2.2933,2.2937,2.2898,2.2932,2.2931,2.2934,2.2934,2.2931,2.289,2.2889,2.2888,2.2887,0,2.3139,2.3143,2.3122,2.3101,2.3082,2.3065,2.3049,2.3035,2.304,2.3019,2.2989,2.2971,2.2935,2.2904,2.2877,2.2866,2.2876,2.2878,2.2867,2.2863,2.2864,2.2861,2.2981,2.2879,2.288,2.2881,2.2881,2.2881,2.3069,2.3045,2.3035,2.301,2.3,2.2986,2.2962,2.2959,2.2935,2.2908,2.2914,2.2879,2.2862,2.2827,2.2815,2.2786,2.2799,2.2785,2.278,2.2776,2.2771,2.2871,2.2781,2.2782,2.2782,2.2782,2.2782,0,2.2974,2.2969,2.2947,2.2926,2.2906,2.2923,2.2907,2.2888,2.2858,2.2844,2.2822,2.2786,2.2758,2.2749,2.272,2.2699,2.2703,2.2691,2.2691,2.2688,2.2763,2.2773,2.2688,2.2688,2.2688,2.2688,2.2688,2.2688,2.2922,2.2882,2.2885,2.284,2.2835,2.2803,2.2793,2.2779,2.2768,2.2728,2.2706,2.2702,2.2689,2.2661,2.2634,2.2632,2.2619,2.2605,2.2604,2.2673,2.2683,2.2692,2.2702,2.2603,2.2603,2.2532,2.2531,2.2531]}]]